Flag for U.S.A. Weather past 2 weeks in Duluth, Minnesota, U.S.A.

Now
23 °F

Overcast.


Feels Like: 12 °F
Forecast: 6 / 27 °F
Wind: 12 mph from Southwest

Location: Sky Harbor Airport

Current Time: Mar 2, 2015 at 10:54:49 PM

Latest Report: Mar 2, 2015 at 10:33 PM


Visibility: 10 mi

Pressure: 30.07 "Hg

Humidity: 50%

Dew point: 7 °F

Location of DuluthLocation

Historic Weather in Duluth — Graph

°F

Duluth temperature yesterday

Maximum temperature yesterday: 27 °F (at 4:13 PM)
Minimum temperature yesterday: 14 °F (at 12:13 AM)
Average temperature yesterday: 19 °F

Past Weeks' High & Low Weather Summary

 TemperatureHumidityPressure
High28 °F (Feb 24, 5:13 AM)92% (Mar 2, 7:13 AM)30.73 "Hg (Mar 2, 7:13 AM)
Low-17 °F (Feb 19, 7:33 AM)30% (Feb 27, 3:53 PM)29.52 "Hg (Feb 24, 6:33 AM)
Average7 °F60%30.21 "Hg
* Reported Feb 15 8:13 PM — Mar 2 8:53 PM, Duluth, Weather by CustomWeather, © 2015

Note: Actual official high and low records may vary slightly from our data, if they occured in-between our weather recording intervals... More about our weather records

Advertising

Duluth weather history for previous 24 hours

 ConditionsComfort  
Time TempWeatherWind HumidityBarometerVisibility
8:53 PM
Mon, Mar 2
23 °FOvercast.5 mph54%30.13 "Hg10 mi
8:34 PM21 °FOvercast.No wind54%30.14 "Hg10 mi
8:14 PM21 °FPassing clouds.8 mph54%30.15 "Hg10 mi
7:53 PM21 °FPassing clouds.No wind54%30.16 "Hg10 mi
7:34 PM21 °FClear.8 mph54%30.16 "Hg10 mi
7:13 PM25 °FClear.12 mph46%30.17 "Hg10 mi
6:53 PM25 °FClear.10 mph42%30.17 "Hg10 mi
6:34 PM25 °FClear.12 mph46%30.17 "Hg10 mi
6:13 PM25 °FClear.12 mph46%30.17 "Hg10 mi
5:54 PM27 °FSunny.10 mph43%30.19 "Hg10 mi
5:34 PM27 °FSunny.14 mph43%30.19 "Hg10 mi
5:13 PM28 °FSunny.13 mph40%30.21 "Hg10 mi
4:54 PM28 °FSunny.16 mph40%30.22 "Hg10 mi
4:33 PM28 °FSunny.15 mph43%30.23 "Hg10 mi
4:14 PM28 °FSunny.10 mph40%30.24 "Hg10 mi
3:53 PM28 °FSunny.9 mph40%30.25 "Hg10 mi
3:34 PM28 °FSunny.14 mph40%30.26 "Hg10 mi
2:53 PM28 °FSunny.No wind43%30.27 "Hg10 mi
2:34 PM28 °FSunny.8 mph43%30.28 "Hg10 mi
2:13 PM28 °FSunny.10 mph43%30.29 "Hg10 mi
1:53 PM28 °FSunny.No wind40%30.30 "Hg10 mi
1:33 PM27 °FSunny.No wind46%30.32 "Hg10 mi
1:13 PM27 °FSunny.No wind50%30.35 "Hg10 mi
12:54 PM27 °FSunny.14 mph50%30.37 "Hg10 mi
12:33 PM27 °FSunny.12 mph50%30.39 "Hg10 mi
12:13 PM25 °FSunny.13 mph54%30.40 "Hg10 mi
11:53 AM25 °FSunny.10 mph54%30.41 "Hg10 mi
11:33 AM23 °FSunny.10 mph58%30.42 "Hg10 mi
11:14 AM21 °FSunny.10 mph63%30.43 "Hg10 mi
10:53 AM21 °FSunny.12 mph63%30.44 "Hg10 mi
10:34 AM19 °FSunny.9 mph68%30.44 "Hg10 mi
10:13 AM18 °FSunny.No wind68%30.44 "Hg10 mi
9:54 AM16 °FSunny.7 mph73%30.44 "Hg10 mi
9:33 AM14 °FSunny.No wind73%30.44 "Hg10 mi
9:13 AM12 °FSunny.No wind79%30.43 "Hg10 mi
8:54 AM12 °FSunny.No wind73%30.43 "Hg10 mi
8:33 AM10 °FSunny.No wind72%30.43 "Hg10 mi
8:13 AM9 °FSunny.No wind78%30.43 "Hg10 mi
7:54 AM7 °FSunny.No wind85%30.43 "Hg10 mi
7:33 AM7 °FSunny.No wind78%30.43 "Hg10 mi
7:13 AM3 °FSunny.No wind92%30.42 "Hg10 mi
6:54 AM3 °FFrigid.No wind85%30.42 "HgN/A
6:33 AM7 °FFrigid.No wind78%30.42 "HgN/A
6:13 AM7 °FFrigid.No wind78%30.41 "HgN/A
5:54 AM7 °FClear.No wind78%30.41 "HgN/A
5:33 AM9 °FClear.7 mph78%30.42 "Hg10 mi
5:13 AM10 °FClear.7 mph79%30.41 "Hg10 mi
4:53 AM12 °FClear.13 mph73%30.41 "Hg10 mi
4:33 AM12 °FClear.13 mph79%30.41 "Hg10 mi
4:14 AM12 °FClear.10 mph79%30.40 "Hg10 mi
3:53 AM12 °FClear.8 mph73%30.39 "Hg10 mi
3:33 AM12 °FClear.10 mph73%30.39 "Hg10 mi
3:14 AM12 °FClear.8 mph79%30.39 "Hg10 mi
2:53 AM10 °FClear.8 mph79%30.39 "Hg10 mi
2:33 AM10 °FClear.7 mph79%30.39 "Hg10 mi
2:14 AM10 °FClear.No wind79%30.38 "Hg10 mi
1:53 AM12 °FClear.No wind73%30.39 "Hg10 mi
1:34 AM12 °FClear.9 mph79%30.38 "Hg10 mi
1:13 AM14 °FClear.12 mph73%30.37 "Hg10 mi
12:53 AM14 °FClear.13 mph73%30.37 "Hg10 mi
12:34 AM16 °FClear.13 mph67%30.36 "Hg10 mi
12:13 AM16 °FClear.10 mph67%30.36 "Hg10 mi
11:53 PM
Sun, Mar 1
16 °FClear.13 mph67%30.35 "Hg10 mi
11:33 PM16 °FClear.14 mph67%30.34 "Hg10 mi
11:13 PM18 °FClear.15 mph68%30.32 "Hg10 mi
10:54 PM18 °FClear.15 mph68%30.31 "Hg10 mi
10:33 PM18 °FPassing clouds.17 mph68%30.30 "Hg10 mi
10:13 PM19 °FPassing clouds.17 mph63%30.29 "Hg10 mi
Weather by CustomWeather, © 2015

See weather overviewHow to use our weather pages